Big Bear Station Historical Data
 
Daily Summary for March 28, 2017 Units:  English    Metric   Both
« Previous Day
Next Day »
Daily Weekly Monthly Yearly Custom
  Current: High: Low: Average:
Temperature: 35.1 °F 35.1 °F 30.6 °F 33.3 °F
Dew Point: 17.4 °F 24.1 °F 16.3 °F 18.6 °F
Humidity: 48 % 64 % 48 % 54 %
Wind Speed: 8.3 mph 8.3 mph 0.0 mph 4.1 mph
Wind Gust: -999.0 mph -999.0 mph - -
Wind:NW - - WSW
Pressure: 30.14 in 30.14 in 30.10 in -
Precipitation: 0.00 in      
Historical Graphs
 
 
Tabular Data for March 28, 2017
Time Temperature Dew Point Pressure Wind Wind Speed Wind Gust Humidity Rainfall Rate (Hourly)
00:08 35.1 °F 24.1 °F 30.12 in NW 6.3 mph -999.0 mph 64 % 0 in
00:23 35.1 °F 24.1 °F 30.12 in NNW 6.3 mph -999.0 mph 64 % 0 in
00:38 35.1 °F 22.2 °F 30.12 in WNW 6.3 mph -999.0 mph 59 % 0 in
00:53 34.7 °F 21.0 °F 30.12 in WNW 2.2 mph -999.0 mph 57 % 0 in
01:08 34.5 °F 21.2 °F 30.11 in ESE 1.7 mph -999.0 mph 58 % 0 in
01:39 34.7 °F 21.8 °F 30.11 in NW 4.2 mph -999.0 mph 59 % 0 in
01:54 34.2 °F 21.0 °F 30.11 in West 5.3 mph -999.0 mph 58 % 0 in
02:25 33.8 °F 19.8 °F 30.11 in WNW 6.8 mph -999.0 mph 56 % 0 in
02:40 34.0 °F 19.5 °F 30.11 in NNW 5.3 mph -999.0 mph 55 % 0 in
02:55 34.2 °F 20.5 °F 30.11 in South 3.7 mph -999.0 mph 57 % 0 in
03:10 33.3 °F 18.4 °F 30.11 in West 2.7 mph -999.0 mph 54 % 0 in
03:25 33.6 °F 18.7 °F 30.10 in NW 3.7 mph -999.0 mph 54 % 0 in
03:41 33.8 °F 18.0 °F 30.10 in NNW 7.8 mph -999.0 mph 52 % 0 in
03:56 34.2 °F 17.9 °F 30.10 in WNW 6.8 mph -999.0 mph 51 % 0 in
04:11 34.2 °F 17.9 °F 30.10 in North 2.2 mph -999.0 mph 51 % 0 in
04:26 33.3 °F 17.1 °F 30.10 in NNE 5.8 mph -999.0 mph 51 % 0 in
04:42 33.1 °F 16.9 °F 30.10 in NNW 4.7 mph -999.0 mph 51 % 0 in
04:57 32.5 °F 17.3 °F 30.11 in South 3.7 mph -999.0 mph 53 % 0 in
05:12 32.2 °F 17.4 °F 30.10 in SW 1.1 mph -999.0 mph 54 % 0 in
05:27 33.1 °F 16.9 °F 30.10 in NNW 6.8 mph -999.0 mph 51 % 0 in
05:43 32.9 °F 16.3 °F 30.11 in South 2.2 mph -999.0 mph 50 % 0 in
05:58 32.0 °F 16.3 °F 30.11 in SSW 2.7 mph -999.0 mph 52 % 0 in
06:13 31.1 °F 16.8 °F 30.12 in SSW 2.2 mph -999.0 mph 55 % 0 in
06:28 30.6 °F 16.8 °F 30.12 in East 1.7 mph -999.0 mph 56 % 0 in
06:43 30.6 °F 16.8 °F 30.12 in SW 3.7 mph -999.0 mph 56 % 0 in
06:59 31.1 °F 16.8 °F 30.12 in Calm   -999.0 mph 55 % 0 in
07:14 32.0 °F 16.8 °F 30.13 in East 2.7 mph -999.0 mph 53 % 0 in
07:30 32.7 °F 16.6 °F 30.13 in WNW 2.7 mph -999.0 mph 51 % 0 in
07:45 32.7 °F 17.4 °F 30.13 in NW 4.2 mph -999.0 mph 53 % 0 in
08:00 33.1 °F 17.8 °F 30.13 in NNW 2.2 mph -999.0 mph 53 % 0 in
08:15 34.0 °F 17.3 °F 30.14 in NNE 4.2 mph -999.0 mph 50 % 0 in
08:30 35.1 °F 17.4 °F 30.14 in NW 8.3 mph -999.0 mph 48 % 0 in
Big Bear CA Weather
Compliments of Weather Underground - 1.25 mb